Home   Weather   Maceió   Past weeks

Flag for Brazil Past Weather in Maceió, Alagoas, Brazil — Yesterday and Last 2 Weeks

Now
70 °F

Light rain. Overcast.


Feels Like: 70 °F
Forecast: 73 / 80 °F
Wind: 6 mph from Southeast

Location: Maceio Aeroporto

Current Time: Aug 20, 2017 at 5:16:47 am

Latest Report: Aug 20, 2017 at 4:00 am


Visibility: 2 mi

Pressure: 29.98 "Hg

Humidity: 100%

Dew Point: 70 °F

Location of MaceióLocation

Past Weather in Maceió — Graph

°F

Maceió Temperature Yesterday

Maximum temperature yesterday: 79 °F (at 1:00 pm)
Minimum temperature yesterday: 70 °F (at 3:00 am)
Average temperature yesterday: 73 °F

High & Low Weather Summary for the Past Weeks

 TemperatureHumidityPressure
High84 °F (Aug 5, 12:00 pm)100% (Aug 5, 3:00 am)30.15 "Hg (Aug 5, 3:00 am)
Low64 °F (Aug 15, 6:00 am)55% (Aug 5, 2:00 pm)29.92 "Hg (Aug 18, 2:00 pm)
Average74 °F85%30.04 "Hg
* Reported Aug 5 3:00 am — Aug 20 3:00 am, Maceió. Weather by CustomWeather, © 2017

Note: Actual official high and low records may vary slightly from our data, if they occured in-between our weather recording intervals... More about our weather records

Advertising

Maceió Weather History for the Previous 24 Hours

Scroll right to see more
 ConditionsComfort  
Time TempWeatherWind HumidityBarometerVisibility
3:00 am
Sun, Aug 20
70 °FLight rain. Mostly cloudy.12 mph100%29.98 "Hg3 mi
2:00 am72 °FLight rain. Overcast.5 mph94%29.98 "Hg2 mi
1:00 am72 °FPassing clouds.6 mph94%30.01 "HgN/A
12:00 am72 °FPassing clouds.8 mph94%30.01 "HgN/A
11:00 pm
Sat, Aug 19
72 °FPassing clouds.6 mph94%30.04 "HgN/A
10:00 pm72 °FPartly cloudy.8 mph94%30.04 "HgN/A
9:00 pm72 °FLight rain. Passing clouds.6 mph94%30.01 "Hg2 mi
8:00 pm72 °FLight rain. Partly cloudy.6 mph94%30.01 "Hg2 mi
7:00 pm72 °FPartly cloudy.6 mph94%29.98 "HgN/A
6:00 pm73 °FPartly cloudy.9 mph94%29.98 "HgN/A
5:00 pm75 °FBroken clouds.7 mph83%29.95 "HgN/A
4:00 pm75 °FBroken clouds.14 mph83%29.95 "HgN/A
3:00 pm73 °FLight rain. Broken clouds.17 mph94%29.95 "Hg3 mi
2:00 pm75 °FPartly sunny.15 mph83%29.95 "HgN/A
1:00 pm79 °FPartly sunny.10 mph74%29.98 "HgN/A
12:00 pm75 °FBroken clouds.10 mph89%30.01 "Hg5 mi
11:00 am75 °FFog.15 mph89%30.04 "Hg3 mi
10:00 am72 °FBroken clouds.13 mph88%30.07 "Hg4 mi
9:00 am73 °FFog.12 mph83%30.07 "Hg3 mi
8:36 am72 °FBroken clouds.8 mph94%30.07 "Hg4 mi
8:00 am72 °FLight rain. Fog.12 mph94%N/A2 mi
7:00 am70 °FFog.5 mph94%30.04 "Hg3 mi
6:00 am72 °FLight rain. Fog.6 mph94%N/A1 mi
5:00 am72 °FLight rain. Fog.7 mph94%30.01 "Hg2 mi
Weather by CustomWeather, © 2017

See weather overviewHow to use our weather pages